Flag for Cayman Islands Weather past 2 weeks in George Town, Cayman Islands

Now
79 °F

Clear.


Feels Like: 82 °F
Forecast: 78 / 81 °F
Wind: 9 mph from East

Location: Owen Roberts Airportgrand Cayman

Current Time: Feb 28, 2015 at 12:50:01 AM

Latest Report: Feb 27, 2015 at 9:53 PM


Visibility: 10 mi

Pressure: 30.04 "Hg

Humidity: 89%

Dew point: 75 °F

Location of George TownLocation

Historic Weather in George Town — Graph

°F

George Town temperature yesterday

Maximum temperature yesterday: 86 °F (at 1:00 PM)
Minimum temperature yesterday: 77 °F (at 6:15 AM)
Average temperature yesterday: 82 °F

Past Weeks' High & Low Weather Summary

 TemperatureHumidityPressure
High86 °F (Feb 26, 1:00 PM)100% (Feb 17, 6:15 AM)30.18 "Hg (Feb 17, 6:15 AM)
Low68 °F (Feb 20, 7:00 AM)54% (Feb 13, 11:00 AM)29.89 "Hg (Feb 25, 4:00 PM)
Average78 °F77%30.03 "Hg
* Reported Feb 12 9:00 PM — Feb 27 9:53 PM, George Town, Weather by CustomWeather, © 2015

Note: Actual official high and low records may vary slightly from our data, if they occured in-between our weather recording intervals... More about our weather records

Advertising

George Town weather history for previous 24 hours

 ConditionsComfort  
Time TempWeatherWind HumidityBarometerVisibility
9:53 PM
Fri, Feb 27
79 °FClear.9 mph89%30.04 "Hg10 mi
8:52 PM79 °FPassing clouds.8 mph89%30.04 "HgN/A
7:50 PM81 °FPassing clouds.8 mph84%30.01 "HgN/A
6:53 PM81 °FPassing clouds.9 mph79%30.01 "HgN/A
5:50 PM82 °FPassing clouds.10 mph74%29.98 "HgN/A
4:51 PM84 °FPassing clouds.13 mph70%29.98 "HgN/A
4:00 PM84 °FPassing clouds.16 mph70%29.98 "HgN/A
3:00 PM84 °FScattered clouds.16 mph70%29.98 "HgN/A
2:00 PM86 °FScattered clouds.14 mph66%30.01 "HgN/A
1:00 PM86 °FPassing clouds.12 mph59%30.01 "HgN/A
12:00 PM84 °FPartly sunny.13 mph66%30.04 "HgN/A
11:00 AM84 °FPartly sunny.10 mph70%30.07 "HgN/A
10:00 AM82 °FScattered clouds.10 mph79%30.07 "HgN/A
9:00 AM82 °FPassing clouds.8 mph79%30.04 "HgN/A
8:00 AM81 °FScattered clouds.6 mph79%30.01 "HgN/A
7:00 AM77 °FPartly sunny.8 mph83%29.98 "HgN/A
6:15 AM77 °FPassing clouds.7 mph89%29.98 "HgN/A
Weather by CustomWeather, © 2015

See weather overviewHow to use our weather pages